Location: Firnhaberau
(48.4049°N, 10.8963°E)
Time: 08:51:59
(UTC+00:00)

CZ-4C R/B - Visible Passes

Search period start: 29 September 2020 00:00
Search period end: 09 October 2020 00:00
Orbit: 628 x 1374 km, 63.4° (Epoch: 28 September)

Date Brightness Start Highest point End Pass type
(mag) Time Alt. Az. Time Alt. Az. Time Alt. Az.
29 Sep 4.4 00:55:12 10° NW 01:00:56 30° NNE 01:07:33 10° E visible
29 Sep 3.1 02:43:36 10° NW 02:50:39 72° NE 02:58:51 10° SE visible
29 Sep 3.6 04:32:29 10° NW 04:39:05 36° WSW 04:46:26 10° S visible
29 Sep 3.0 18:12:21 10° SSE 18:16:19 24° ESE 18:19:53 14° ENE visible
29 Sep 2.4 19:59:05 10° SW 20:04:09 65° NW 20:05:19 52° N visible
29 Sep 4.5 21:49:18 10° WNW 21:55:58 22° N 21:59:21 10° NE visible
29 Sep 4.6 23:41:07 15° NNW 23:44:45 23° N 23:50:21 10° ENE visible
30 Sep 3.9 01:28:41 10° NW 01:35:06 42° NE 01:42:35 10° ESE visible
30 Sep 2.9 03:17:05 10° NW 03:24:15 72° SW 03:32:31 10° SSE visible
30 Sep 2.1 18:44:25 10° SSW 18:49:14 54° ESE 18:55:00 10° NE visible
30 Sep 3.5 20:33:03 10° W 20:38:00 38° NNW 20:43:55 10° NE visible
30 Sep 4.6 22:23:52 10° NW 22:28:24 22° N 22:33:36 10° NE visible
01 Oct 4.4 00:13:37 10° NW 00:19:11 28° NNE 00:25:33 10° ENE visible
01 Oct 3.2 02:02:04 10° NW 02:09:02 64° NE 02:17:09 10° SE visible
01 Oct 3.3 03:50:48 10° NW 03:57:37 42° WSW 04:05:15 10° S visible
01 Oct 3.3 17:31:26 10° SSE 17:34:59 20° ESE 17:38:56 10° ENE visible
01 Oct 2.2 19:17:31 10° SW 19:22:34 76° NW 19:28:44 10° NE visible
01 Oct 4.1 21:07:29 10° WNW 21:12:11 27° NNW 21:17:41 10° NE visible
01 Oct 4.6 22:58:09 10° NW 23:02:56 22° N 23:08:23 10° NE visible
02 Oct 4.0 00:47:09 10° NW 00:53:25 38° NNE 01:00:41 10° E visible
02 Oct 2.8 02:35:31 10° NW 02:42:42 82° SW 02:51:00 10° SSE visible
02 Oct 4.0 04:25:06 10° WNW 04:30:42 23° WSW 04:36:46 10° SSW visible
02 Oct 2.3 18:03:07 10° S 18:07:47 44° ESE 18:13:20 10° NE visible
02 Oct 3.3 19:51:20 10° WSW 19:56:20 43° NW 20:02:20 10° NE visible
02 Oct 4.5 21:42:03 10° WNW 21:46:36 22° N 21:48:17 20° NNE visible
02 Oct 4.5 23:32:01 10° NW 23:38:24 25° NNE 23:43:33 10° ENE visible
03 Oct 3.4 01:23:51 31° NNW 01:27:23 57° NE 01:35:22 10° ESE visible
03 Oct 3.1 03:09:19 11° NW 03:16:07 48° WSW 03:24:00 10° S visible
03 Oct 2.1 18:36:00 10° SW 18:41:01 89° NW 18:47:08 10° NE visible
03 Oct 4.0 20:25:40 10° W 20:30:26 29° NNW 20:35:12 13° NNE visible
03 Oct 4.6 22:16:25 10° NW 22:29:10 - ENE 22:20:21 21° N visible
04 Oct 4.5 00:14:36 26° ENE 00:14:36 26° ENE 00:18:45 10° E visible
04 Oct 2.8 02:00:02 69° NW 02:01:07 89° NE 02:09:26 10° SE visible
04 Oct 3.8 03:45:29 18° WNW 03:49:17 27° WSW 03:55:53 10° SSW visible
04 Oct 2.6 17:21:54 10° S 17:26:23 36° ESE 17:31:39 10° NE visible
04 Oct 3.0 19:09:38 10° WSW 19:14:41 49° NW 19:20:46 10° NE visible
04 Oct 4.4 21:00:14 10° WNW 21:04:48 23° N 21:07:22 18° NNE visible
04 Oct 4.8 22:50:25 10° NW 23:05:06 - E 22:52:32 18° NNW visible
05 Oct 4.6 00:50:30 24° ESE 00:50:30 24° ESE 00:53:34 10° ESE visible
05 Oct 3.2 02:35:55 51° SSW 02:35:55 51° SSW 02:42:41 10° SSE visible
05 Oct 4.4 04:21:20 13° W 04:22:08 13° WSW 04:25:40 10° SW visible
05 Oct 2.0 17:54:31 10° SSW 17:59:30 77° SE 18:05:32 10° NE visible
05 Oct 3.9 19:43:52 10° W 19:48:42 31° NNW 19:54:25 10° NE visible
05 Oct 4.5 21:34:41 10° NW 21:39:18 21° N 21:39:35 21° N visible
05 Oct 5.0 23:24:03 10° NW 23:24:44 13° NNW 23:24:44 13° NNW visible
06 Oct 4.8 01:26:05 18° SE 01:26:05 18° SE 01:27:48 10° SE visible
06 Oct 4.2 03:11:28 23° SSW 03:11:28 23° SSW 03:14:53 10° S visible
06 Oct 2.8 18:27:59 10° WSW 18:33:03 57° NW 18:39:11 10° NE visible
06 Oct 4.3 20:18:24 10° WNW 20:23:00 24° NNW 20:26:39 15° NNE visible
06 Oct 4.7 22:08:46 10° NW 22:11:49 21° NNW 22:11:49 21° NNW visible
07 Oct 2.1 17:13:06 10° SSW 17:18:00 64° SE 17:23:56 10° NE visible
07 Oct 3.7 19:02:05 10° W 19:06:59 35° NNW 19:12:49 10° NE visible
07 Oct 4.5 20:52:54 10° NW 20:57:28 22° N 20:58:54 20° NNE visible
07 Oct 4.9 22:42:30 10° NW 22:44:03 17° NNW 22:44:03 17° NNW visible
08 Oct 2.5 17:46:23 10° SW 17:51:26 66° NW 17:57:36 10° NE visible
08 Oct 4.2 19:36:33 10° WNW 19:41:13 25° NNW 19:45:59 12° NNE visible
08 Oct 4.5 21:27:06 10° NW 21:31:08 22° N 21:31:08 22° N visible
08 Oct 5.2 23:15:58 10° NW 23:16:18 11° NW 23:16:18 11° NW visible
